User: anonymous   Login
Location: Unspecified
(0.0000°N, 0.0000°E)
Time: 18:07:16
(UTC+00:00)
Language:

QIANFAN-77 - Orbit

View from above orbital plane
View from above orbital plane
View from above satellite
View from above satellite

Ground track
Ground track

The orbit is defined by the following mean orbital elements,

1 63163U          26145.45065383 +.00000000 +00000-0 +52919-4 0 00004
2 63163  88.9696 299.8134 0012630 292.0103  67.9731 13.96191947    05
Epoch (UTC): 25 May 2026 10:48:56
Eccentricity: 0.0012630
inclination: 88.9696°
perigee height: 898 km
apogee height: 916 km
right ascension of ascending node: 299.8134°
argument of perigee: 292.0103°
revolutions per day: 13.96191947
mean anomaly at epoch: 67.9731°

The dashed part of the orbit path shows where the satellite is in the earth's shadow,  

DLR